Bismarck, ND

4:53 PM CST on January 19, 2017 (GMT -0600)
Bismarck Municipal

Weather History for KBIS - November, 2011

Change the Weather History Date:

Saturday, November 5, 2011

  Actual Average Record
Temperature  
Mean Temperature 41 °F 35 °F  
Max Temperature 50 °F 46 °F 76 °F (2016)
Min Temperature 32 °F 24 °F -8 °F (1951)
Degree Days  
Heating Degree Days 24 30  
Month to date heating degree days 122 145  
Since 1 July heating degree days 854 1057  
Cooling Degree Days 0 0  
Month to date cooling degree days 0 0  
Year to date cooling degree days 425 520  
Moisture  
Dew Point 30 °F    
Average Humidity 64    
Maximum Humidity 82    
Minimum Humidity 46    
Precipitation  
Precipitation 0.00 in 0.02 in 0.83 in (2008)
Month to date precipitation 0.00 0.14  
Year to date precipitation 22.69 16.79  
Snow  
Snow 0.00 in 0.20 in 7.00 in (1895)
Month to date snowfall 0.0 1.1  
Since 1 July snowfall T 3.5  
Since 1 September snowfall T 3.5  
Snow Depth 0.00 in    
Sea Level Pressure  
Sea Level Pressure 29.45 in    
Wind  
Wind Speed 7 mph (East)    
Max Wind Speed 16 mph    
Max Gust Speed 20 mph    
Visibility 10 miles    
Events      
T = Trace of Precipitation, MM = Missing Value Source: NWS Daily Summary

Daily Weather History Graph

Daily Weather History Graph

Search for Another Location

Airport or City:

Trip Planner

Search our weather history database for the weather conditions in past years. The results will help you decide how hot, cold, wet, or windy it might be!

Date:

Astronomy

Nov. 05, 2011 Rise Set
Actual Time 8:30 AM CDT 6:21 PM CDT
Civil Twilight 7:58 AM CDT 6:53 PM CDT
Nautical Twilight 7:22 AM CDT 7:29 PM CDT
Astronomical Twilight 6:47 AM CDT 8:05 PM CDT
Moon 3:54 PM CDT (11/5) 3:26 AM CDT (11/5)
Length of Visible Light 10h 55m
Length of Day
9h 51m
Waxing Gibbous, 78% of the Moon is Illuminated
Nov 5
Waxing Gibbous
Nov 10
Full
Nov 18
Last Quarter
Nov 25
New
Dec 2
First Quarter

Hourly Weather History & Observations

Time (CDT) Temp. Windchill Dew Point Humidity Pressure Visibility Wind Dir Wind Speed Gust Speed Precip Events Conditions
12:52 AM 35.1 °F 28.6 °F 27.0 °F 72% 29.62 in 10.0 mi East 8.1 mph - N/A   Clear
1:52 AM 37.0 °F 32.4 °F 28.9 °F 73% 29.60 in 10.0 mi ESE 5.8 mph - N/A   Clear
2:52 AM 35.1 °F 28.6 °F 28.0 °F 76% 29.60 in 10.0 mi ENE 8.1 mph - N/A   Clear
3:52 AM 34.0 °F 26.6 °F 28.0 °F 79% 29.59 in 10.0 mi ENE 9.2 mph - N/A   Clear
4:52 AM 34.0 °F 26.6 °F 28.0 °F 79% 29.57 in 10.0 mi NE 9.2 mph - N/A   Clear
5:52 AM 34.0 °F 28.0 °F 28.9 °F 82% 29.56 in 10.0 mi East 6.9 mph - N/A   Clear
6:52 AM 33.8 °F 28.6 °F 28.4 °F 81% 29.51 in 10.0 mi East 5.8 mph - N/A   Clear
7:52 AM 34.0 °F 29.8 °F 28.9 °F 82% 29.55 in 10.0 mi ENE 4.6 mph - N/A   Clear
8:52 AM 33.1 °F 26.1 °F 28.9 °F 85% 29.52 in 10.0 mi ENE 8.1 mph - N/A   Clear
9:52 AM 36.0 °F 29.6 °F 30.0 °F 79% 29.51 in 10.0 mi ENE 8.1 mph - N/A   Clear
10:52 AM 43.0 °F 37.7 °F 30.0 °F 60% 29.48 in 10.0 mi SE 9.2 mph - N/A   Clear
11:52 AM 45.0 °F 39.3 °F 30.0 °F 56% 29.46 in 10.0 mi SSE 11.5 mph - N/A   Clear
12:52 PM 46.0 °F 40.6 °F 30.0 °F 54% 29.45 in 10.0 mi SSE 11.5 mph - N/A   Clear
1:52 PM 46.4 °F 41.5 °F 30.2 °F 53% 29.38 in 10.0 mi SSE 10.4 mph - N/A   Clear
2:52 PM 48.2 °F - 30.2 °F 50% 29.36 in 10.0 mi SE 10.4 mph - N/A   Clear
3:52 PM 50.0 °F - 30.9 °F 48% 29.36 in 10.0 mi ESE 5.8 mph - N/A   Clear
4:52 PM 50.0 °F - 33.1 °F 52% 29.35 in 10.0 mi SE 5.8 mph - N/A   Clear
5:52 PM 46.9 °F - 33.1 °F 59% 29.36 in 10.0 mi ENE 4.6 mph - N/A   Scattered Clouds
6:52 PM 46.0 °F 44.8 °F 33.1 °F 61% 29.35 in 10.0 mi North 3.5 mph - N/A   Mostly Cloudy
7:52 PM 43.0 °F 40.3 °F 32.0 °F 65% 29.35 in 10.0 mi NE 4.6 mph - N/A   Partly Cloudy
8:52 PM 41.0 °F - 32.0 °F 70% 29.34 in 10.0 mi Calm Calm - N/A   Clear
9:52 PM 37.4 °F - 32.0 °F 81% 29.29 in 10.0 mi Calm Calm - N/A   Clear
10:52 PM 37.4 °F 32.1 °F 30.2 °F 75% 29.30 in 10.0 mi WNW 6.9 mph - N/A   Clear
11:52 PM 39.0 °F 31.4 °F 30.9 °F 73% 29.34 in 10.0 mi WNW 12.7 mph - N/A   Clear